TimeEDT,TemperatureF,Dew PointF,Humidity,Sea Level PressureIn,VisibilityMPH,Wind Direction,Wind SpeedMPH,Gust SpeedMPH,PrecipitationIn,Events,Conditions,WindDirDegrees,DateUTC
12:17 AM,57.2,55.4,94,29.92,3.0,Calm,Calm,-,N/A,,Scattered Clouds,0,2012-10-06 04:17:00
12:25 AM,57.2,55.4,94,29.92,2.5,Calm,Calm,-,N/A,,Partly Cloudy,0,2012-10-06 04:25:00
12:34 AM,57.2,55.4,94,29.92,5.0,Calm,Calm,-,N/A,,Clear,0,2012-10-06 04:34:00
12:53 AM,57.0,55.0,93,29.91,5.0,Calm,Calm,-,N/A,,Clear,0,2012-10-06 04:53:00
12:58 AM,55.4,55.4,100,29.92,1.0,Calm,Calm,-,N/A,,Mist,0,2012-10-06 04:58:00
1:05 AM,55.4,55.4,100,29.92,0.5,Calm,Calm,-,N/A,Fog,Fog,0,2012-10-06 05:05:00
1:14 AM,55.4,55.4,100,29.92,0.8,Calm,Calm,-,N/A,,Mist,0,2012-10-06 05:14:00
1:35 AM,57.2,55.4,94,29.91,0.2,Calm,Calm,-,N/A,Fog,Fog,0,2012-10-06 05:35:00
1:46 AM,55.4,55.4,100,29.91,0.5,Calm,Calm,-,N/A,Fog,Fog,0,2012-10-06 05:46:00
1:53 AM,55.9,55.0,97,29.91,0.5,Calm,Calm,-,N/A,Fog,Fog,0,2012-10-06 05:53:00
2:07 AM,55.4,55.4,100,29.90,1.2,Calm,Calm,-,N/A,,Mostly Cloudy,0,2012-10-06 06:07:00
2:15 AM,55.4,53.6,94,29.90,1.5,Calm,Calm,-,N/A,,Mostly Cloudy,0,2012-10-06 06:15:00
2:28 AM,55.4,53.6,94,29.89,0.5,Calm,Calm,-,N/A,Fog,Fog,0,2012-10-06 06:28:00
2:53 AM,55.0,54.0,96,29.88,2.5,Calm,Calm,-,N/A,,Mostly Cloudy,0,2012-10-06 06:53:00
3:02 AM,55.4,53.6,94,29.88,3.0,Calm,Calm,-,N/A,,Scattered Clouds,0,2012-10-06 07:02:00
3:31 AM,55.4,53.6,94,29.88,2.0,Calm,Calm,-,N/A,,Mostly Cloudy,0,2012-10-06 07:31:00
3:38 AM,55.4,53.6,94,29.88,1.0,Calm,Calm,-,N/A,,Mist,0,2012-10-06 07:38:00
3:53 AM,54.0,53.1,97,29.88,0.5,Calm,Calm,-,N/A,Fog,Fog,0,2012-10-06 07:53:00
4:03 AM,53.6,53.6,100,29.88,2.5,Calm,Calm,-,N/A,,Overcast,0,2012-10-06 08:03:00
4:15 AM,53.6,53.6,100,29.88,0.8,Calm,Calm,-,N/A,,Mist,0,2012-10-06 08:15:00
4:29 AM,53.6,53.6,100,29.88,0.2,Calm,Calm,-,N/A,Fog,Fog,0,2012-10-06 08:29:00
4:53 AM,55.0,54.0,96,29.86,0.2,Calm,Calm,-,N/A,Fog,Fog,0,2012-10-06 08:53:00
5:53 AM,55.9,55.0,97,29.86,0.2,Calm,Calm,-,N/A,Fog,Fog,0,2012-10-06 09:53:00
6:53 AM,57.9,57.0,97,29.86,0.2,Calm,Calm,-,N/A,Fog,Fog,0,2012-10-06 10:53:00
7:53 AM,59.0,59.0,100,29.86,0.2,Calm,Calm,-,N/A,Fog,Fog,0,2012-10-06 11:53:00
8:13 AM,59.0,57.2,94,29.85,0.5,SSE,4.6,-,N/A,Fog,Fog,160,2012-10-06 12:13:00
8:20 AM,60.8,60.8,100,29.85,1.2,SSE,5.8,-,N/A,,Scattered Clouds,160,2012-10-06 12:20:00
8:38 AM,62.6,60.8,94,29.85,2.0,SSE,4.6,-,N/A,,Clear,160,2012-10-06 12:38:00
8:53 AM,62.1,61.0,96,29.85,3.0,SSE,4.6,-,N/A,,Clear,160,2012-10-06 12:53:00
9:53 AM,68.0,61.0,78,29.83,8.0,South,9.2,-,N/A,,Clear,170,2012-10-06 13:53:00
10:53 AM,73.0,61.0,66,29.81,10.0,South,10.4,-,N/A,,Clear,170,2012-10-06 14:53:00
11:53 AM,75.0,59.0,57,29.79,10.0,SSW,9.2,20.7,N/A,,Clear,210,2012-10-06 15:53:00
12:53 PM,75.9,59.0,56,29.76,10.0,South,8.1,25.3,N/A,,Clear,190,2012-10-06 16:53:00
1:53 PM,75.9,60.1,58,29.74,10.0,South,11.5,19.6,N/A,,Partly Cloudy,190,2012-10-06 17:53:00
2:53 PM,75.0,59.0,57,29.74,10.0,SW,6.9,-,N/A,,Overcast,230,2012-10-06 18:53:00
3:53 PM,73.0,60.1,64,29.75,10.0,SSW,5.8,-,N/A,,Overcast,210,2012-10-06 19:53:00
4:53 PM,71.1,57.9,63,29.76,10.0,WNW,6.9,-,N/A,,Overcast,290,2012-10-06 20:53:00
5:35 PM,62.6,51.8,68,29.82,10.0,NW,17.3,27.6,N/A,,Overcast,320,2012-10-06 21:35:00
5:53 PM,61.0,51.1,70,29.84,10.0,NNW,12.7,21.9,N/A,,Overcast,330,2012-10-06 21:53:00
6:08 PM,60.8,51.8,72,29.85,10.0,NNW,12.7,-,N/A,,Overcast,330,2012-10-06 22:08:00
6:19 PM,60.8,50.0,68,29.85,10.0,Variable,6.9,-,N/A,,Overcast,0,2012-10-06 22:19:00
7:53 PM,57.0,48.0,72,29.89,10.0,Calm,Calm,-,N/A,,Clear,0,2012-10-06 23:53:00
8:53 PM,53.1,46.9,80,29.93,10.0,WNW,3.5,-,N/A,,Clear,300,2012-10-07 00:53:00
9:53 PM,51.1,46.0,83,29.95,10.0,Calm,Calm,-,N/A,,Clear,0,2012-10-07 01:53:00
10:53 PM,46.9,45.0,93,29.97,10.0,Calm,Calm,-,N/A,,Clear,0,2012-10-07 02:53:00
11:53 PM,46.9,44.1,90,29.98,10.0,Calm,Calm,-,N/A,,Clear,0,2012-10-07 03:53:00